Weather History for Hebron, NE

Change the Weather History Date:

Thursday, February 21, 2013

  Actual Average Record
Temperature  
Mean Temperature 22 °F -  
Max Temperature 24 °F 43 °F 73 °F (1981)
Min Temperature 20 °F 21 °F -5 °F (1978)
Degree Days  
Heating Degree Days 43    
Moisture  
Dew Point 16 °F    
Average Humidity 77    
Maximum Humidity 89    
Minimum Humidity 52    
Precipitation  
Precipitation 0.05 in - - ()
Sea Level Pressure  
Sea Level Pressure 29.91 in    
Wind  
Wind Speed 14 mph (NE)    
Max Wind Speed 20 mph    
Max Gust Speed 25 mph    
Visibility 4 miles    
Events Snow    
Averages and records for this station are not official NWS values.
T = Trace of Precipitation, MM = Missing Value Source: NWS Daily Summary

Daily Weather History Graph

Daily Weather History Graph

Search for Another Location

Airport:

Trip Planner

Search our weather history database for the weather conditions in past years. The results will help you decide how hot, cold, wet, or windy it might be!

Date:

Astronomy

Feb. 21, 2013 Rise Set
Actual Time 7:14 AM CST 6:13 PM CST
Civil Twilight 6:47 AM CST 6:40 PM CST
Nautical Twilight 6:15 AM CST 7:12 PM CST
Astronomical Twilight 5:44 AM CST 7:43 PM CST
Moon 2:29 PM CST (2/21) 4:20 AM CST (2/21)
Length of Visible Light 11h 53m
Length of Day
10h 58m
Waxing Gibbous, 84% of the Moon is Illuminated
Feb 21
Waxing Gibbous
Feb 25
Full
Mar 4
Last Quarter
Mar 11
New
Mar 19
First Quarter

Hourly Weather History & Observations

Time (CST) Temp. Windchill Dew Point Humidity Pressure Visibility Wind Dir Wind Speed Gust Speed Precip Events Conditions
12:15 AM 23.7 °F 12.1 °F 12.6 °F 62% 30.12 in 10.0 mi East 12.7 mph - N/A Snow Light Snow
12:35 AM 23.4 °F 11.1 °F 14.5 °F 69% 30.09 in 1.8 mi ENE 13.8 mph 23.0 mph N/A Snow Light Snow
12:55 AM 23.9 °F 12.3 °F 12.0 °F 61% 30.10 in 7.0 mi East 12.7 mph 19.6 mph N/A Snow Light Snow
1:15 AM 23.9 °F 11.2 °F 12.0 °F 61% 30.10 in 10.0 mi East 15.0 mph - N/A   Overcast
1:35 AM 23.9 °F 11.2 °F 11.8 °F 60% 30.07 in 10.0 mi ENE 15.0 mph - N/A   Overcast
1:55 AM 24.1 °F 12.0 °F 11.5 °F 59% 30.07 in 10.0 mi East 13.8 mph 20.7 mph N/A   Overcast
2:15 AM 24.1 °F 11.0 °F 10.4 °F 56% 30.04 in 10.0 mi East 16.1 mph 23.0 mph N/A   Overcast
2:35 AM 24.3 °F 12.2 °F 9.3 °F 53% 30.04 in 10.0 mi East 13.8 mph - N/A   Overcast
2:55 AM 24.3 °F 11.7 °F 9.7 °F 54% 30.03 in 10.0 mi East 15.0 mph - N/A   Overcast
3:15 AM 24.4 °F 11.0 °F 9.7 °F 53% 30.04 in 10.0 mi East 17.3 mph 21.9 mph N/A   Overcast
3:35 AM 24.3 °F 10.8 °F 9.5 °F 53% 30.02 in 10.0 mi East 17.3 mph - N/A   Overcast
3:55 AM 24.3 °F 11.2 °F 9.0 °F 52% 29.99 in 10.0 mi East 16.1 mph 23.0 mph N/A   Overcast
4:15 AM 24.1 °F 10.1 °F 9.3 °F 53% 29.98 in 10.0 mi East 18.4 mph 25.3 mph N/A   Overcast
4:35 AM 23.9 °F 10.8 °F 9.1 °F 53% 29.98 in 10.0 mi East 16.1 mph 24.2 mph N/A   Overcast
4:55 AM 23.9 °F 10.8 °F 9.3 °F 54% 29.99 in 10.0 mi East 16.1 mph 25.3 mph N/A   Overcast
5:15 AM 23.9 °F 10.3 °F 9.5 °F 54% 30.00 in 10.0 mi East 17.3 mph 23.0 mph N/A   Overcast
5:55 AM 23.7 °F 12.6 °F 9.5 °F 55% 29.99 in 10.0 mi East 11.5 mph - N/A   Overcast
6:15 AM 23.7 °F 10.1 °F 9.5 °F 55% 29.99 in 10.0 mi East 17.3 mph 21.9 mph N/A   Overcast
6:35 AM 23.0 °F 8.7 °F 11.3 °F 61% 29.98 in 3.0 mi East 18.4 mph - N/A Snow Light Snow
6:55 AM 22.1 °F 8.5 °F 13.1 °F 68% 29.98 in 2.0 mi East 16.1 mph 20.7 mph N/A Snow Light Snow
7:15 AM 21.6 °F 9.3 °F 14.4 °F 74% 29.98 in 1.5 mi East 12.7 mph - N/A Snow Light Snow
7:35 AM 21.2 °F 8.9 °F 15.3 °F 78% 29.99 in 1.5 mi East 12.7 mph - N/A Snow Light Snow
7:55 AM 21.0 °F 8.6 °F 15.8 °F 80% 29.98 in 0.5 mi East 12.7 mph - N/A Snow Snow
8:15 AM 21.0 °F 9.3 °F 16.7 °F 83% 29.99 in 0.5 mi East 11.5 mph - N/A Snow Snow
8:35 AM 20.8 °F 7.3 °F 17.2 °F 86% 29.98 in 0.5 mi ENE 15.0 mph - N/A Snow Snow
8:55 AM 21.0 °F 6.6 °F 17.1 °F 85% 29.97 in 1.0 mi ENE 17.3 mph - N/A Snow Light Snow
9:15 AM 20.8 °F 5.9 °F 16.7 °F 84% 29.96 in 1.0 mi ENE 18.4 mph 24.2 mph N/A Snow Light Snow
9:35 AM 20.8 °F 5.5 °F 16.7 °F 84% 29.94 in 1.2 mi ENE 19.6 mph - N/A Snow Light Snow
9:55 AM 20.8 °F 6.4 °F 16.9 °F 85% 29.94 in 0.8 mi NE 17.3 mph 25.3 mph N/A Snow Light Snow
10:15 AM 20.8 °F 5.9 °F 16.7 °F 84% 29.93 in 1.0 mi ENE 18.4 mph 24.2 mph N/A Snow Light Snow
10:35 AM 20.8 °F 7.9 °F 17.2 °F 86% 29.93 in 0.5 mi NE 13.8 mph 25.3 mph N/A Snow Light Snow
11:15 AM 21.2 °F 7.3 °F 17.6 °F 86% 29.92 in 0.5 mi NE 16.1 mph - N/A Snow Snow
11:35 AM 21.6 °F 9.3 °F 18.0 °F 86% 29.91 in 0.2 mi NE 12.7 mph - N/A Snow Snow
11:55 AM 21.7 °F 8.5 °F 17.8 °F 85% 29.91 in 0.8 mi NE 15.0 mph 24.2 mph N/A Snow Light Snow
12:15 PM 21.7 °F 7.5 °F 17.6 °F 84% 29.89 in 0.8 mi NE 17.3 mph - 0.01 in Snow Light Snow
12:35 PM 22.5 °F 7.6 °F 18.1 °F 83% 29.87 in 1.2 mi NE 19.6 mph - 0.02 in Snow Light Snow
12:55 PM 22.5 °F 8.5 °F 18.5 °F 85% 29.86 in 0.8 mi NE 17.3 mph 21.9 mph 0.02 in Snow Light Snow
1:15 PM 22.8 °F 8.1 °F 18.7 °F 84% 29.84 in 1.2 mi NE 19.6 mph - 0.01 in Snow Light Snow
1:35 PM 23.0 °F 9.2 °F 19.0 °F 85% 29.83 in 2.5 mi NE 17.3 mph 23.0 mph 0.01 in   Overcast
1:55 PM 23.2 °F 10.3 °F 19.4 °F 85% 29.83 in 2.0 mi ENE 15.0 mph 24.2 mph 0.01 in Snow Light Snow
2:15 PM 23.5 °F 10.8 °F 19.4 °F 84% 29.84 in 1.0 mi ENE 15.0 mph 23.0 mph N/A Snow Light Snow
2:35 PM 23.7 °F 11.0 °F 20.1 °F 86% 29.83 in 0.8 mi ENE 15.0 mph 20.7 mph N/A Snow Light Snow
2:55 PM 23.9 °F 10.8 °F 20.1 °F 85% 29.81 in 1.0 mi ENE 16.1 mph 20.7 mph N/A Snow Light Snow
3:15 PM 23.9 °F 10.8 °F 20.1 °F 85% 29.81 in 1.5 mi ENE 16.1 mph 20.7 mph N/A Snow Light Snow
3:35 PM 23.9 °F 10.8 °F 19.9 °F 85% 29.81 in 2.0 mi ENE 16.1 mph 23.0 mph N/A Snow Light Snow
3:55 PM 23.7 °F 9.7 °F 19.4 °F 84% 29.81 in 1.0 mi ENE 18.4 mph 25.3 mph N/A Snow Light Snow
4:15 PM 23.5 °F 10.3 °F 19.4 °F 84% 29.80 in 1.5 mi ENE 16.1 mph 23.0 mph N/A Snow Light Snow
4:35 PM 23.4 °F 11.1 °F 19.4 °F 85% 29.80 in 1.8 mi ENE 13.8 mph 25.3 mph N/A Snow Light Snow
4:55 PM 23.0 °F 9.2 °F 19.4 °F 86% 29.80 in 0.5 mi ENE 17.3 mph - N/A Snow Snow
5:15 PM 22.6 °F 9.2 °F 19.4 °F 87% 29.80 in 0.2 mi ENE 16.1 mph 20.7 mph 0.01 in Snow Snow
5:35 PM 22.6 °F 10.1 °F 19.4 °F 87% 29.81 in 0.8 mi ENE 13.8 mph 17.3 mph 0.01 in Snow Light Snow
5:55 PM 22.3 °F 9.2 °F 19.4 °F 89% 29.81 in 0.8 mi NE 15.0 mph 19.6 mph 0.01 in Snow Light Snow
6:15 PM 22.1 °F 11.3 °F 19.0 °F 88% 29.81 in 0.8 mi NE 10.4 mph - N/A Snow Light Snow
6:35 PM 22.1 °F 11.3 °F 19.0 °F 88% 29.82 in 1.5 mi NE 10.4 mph - N/A Snow Light Snow
6:55 PM 22.1 °F 11.3 °F 18.9 °F 87% 29.82 in 2.0 mi NE 10.4 mph - N/A Snow Light Snow
7:15 PM 22.1 °F 11.3 °F 19.0 °F 88% 29.83 in 1.2 mi NE 10.4 mph - 0.01 in Snow Light Snow
7:35 PM 22.1 °F 12.8 °F 19.2 °F 89% 29.83 in 1.0 mi NNE 8.1 mph - 0.01 in Snow Snow
7:55 PM 22.1 °F 12.0 °F 19.0 °F 88% 29.83 in 1.5 mi NNE 9.2 mph - 0.01 in Snow Light Snow
8:15 PM 21.9 °F 11.7 °F 18.7 °F 87% 29.83 in 1.5 mi NNE 9.2 mph - N/A Snow Light Snow
8:35 PM 22.1 °F 12.8 °F 18.5 °F 86% 29.83 in 3.0 mi North 8.1 mph - N/A Snow Light Snow
8:55 PM 21.7 °F 12.3 °F 18.1 °F 86% 29.83 in 4.0 mi North 8.1 mph - N/A Snow Light Snow
9:15 PM 21.2 °F 12.6 °F 17.6 °F 86% 29.83 in 7.0 mi North 6.9 mph - N/A Snow Light Snow
9:35 PM 21.2 °F 12.6 °F 17.6 °F 86% 29.83 in 7.0 mi North 6.9 mph - N/A Snow Light Snow
9:55 PM 21.2 °F 11.7 °F 17.4 °F 85% 29.85 in 7.0 mi North 8.1 mph - N/A Snow Light Snow
10:15 PM 21.2 °F 10.9 °F 17.4 °F 85% 29.84 in 5.0 mi North 9.2 mph - N/A Snow Light Snow
10:35 PM 21.0 °F 11.4 °F 17.1 °F 85% 29.85 in 7.0 mi North 8.1 mph - N/A Snow Light Snow
10:55 PM 20.7 °F 10.2 °F 16.7 °F 85% 29.85 in 10.0 mi North 9.2 mph - N/A   Overcast
11:15 PM 20.3 °F 9.8 °F 16.5 °F 85% 29.85 in 7.0 mi North 9.2 mph - N/A Snow Light Snow
11:35 PM 20.1 °F 9.5 °F 16.3 °F 85% 29.85 in 5.0 mi NNW 9.2 mph - N/A Snow Light Snow
11:55 PM 20.3 °F 9.0 °F 16.5 °F 85% 29.85 in 10.0 mi NNW 10.4 mph - N/A Snow Light Snow